[[{"header":{"parameterUnit":"m.s-1","parameterCategory":2,"la1":30.2991,"la2":30.254,"lo1":-89.0895,"lo2":-89.0444,"dy":0.0017,"dx":0.0017,"nx":28,"ny":28,"refTime":"2025-01-06T09:00:00:Z","depth":"0","parameterNumber":2,"parameterNumberName":"U-component_of_CURRENTS"},"data":[0,0,0,0,0,0,0,0,0,0,0,0,0,0,0,0,0,0,0,0,0,0,0,0,0,0,0,0,0,0,0,0,0,0,0,0,0,0,0,0,0,0,0,0,0,0,0,0,0,0,0,0,0,0,0,0,0,0,0.0839,0.0839,0,0.084,0.084,0.084,0.0844,0.0844,0.0844,0.0844,0.0808,0.0807,0.0806,0,0,0,0,0,0,0,0,0,0,0,0,0,0.0816,0.0817,0.0839,0.0839,0.0839,0.084,0.084,0.084,0.0844,0.0844,0.0844,0.0844,0.0808,0.0807,0.0806,0,0,0,0,0,0,0,0,0,0,0,0,0,0.0823,0.0817,0.0839,0.0841,0.0841,0.084,0.084,0.084,0.0844,0.0844,0.0844,0.0844,0.0808,0.0807,0.0805,0.0794,0,0,0.0801,0.08,0,0,0,0,0,0,0,0,0.0822,0.0824,0.084,0.084,0.0841,0.0842,0.0819,0.0823,0.0844,0.0843,0.0844,0.0844,0.0815,0.0813,0.0814,0.0792,0.0791,0.0801,0.08,0.0799,0.0799,0,0,0,0,0,0,0,0.0822,0.0823,0.0839,0.084,0.084,0.0833,0.0834,0.0819,0.0828,0.0843,0.0843,0.0843,0.0815,0.0816,0.0813,0.079,0.0801,0.0799,0.0798,0.0798,0.078,0.0781,0,0,0,0,0,0,0.0823,0.0823,0.0839,0.0839,0.0831,0.0834,0.0835,0.0841,0.0829,0.0827,0.0843,0.0843,0.0818,0.0815,0.0812,0.0809,0.0799,0.0798,0.0797,0.078,0.078,0.0781,0,0,0,0,0,0,0.0822,0.0824,0.0839,0.0831,0.0832,0.0834,0.0841,0.0841,0.0842,0.0829,0.0827,0.0844,0.0818,0.0814,0.0806,0.0807,0.0797,0.0795,0.0779,0.078,0.0781,0.0795,0,0,0,0,0,0,0.0822,0.0824,0.0828,0.0831,0.0832,0.0837,0.0841,0.0841,0.0842,0.0842,0.0829,0.0826,0.0818,0.0808,0.0804,0.0804,0.0794,0.0779,0.0779,0.078,0.0794,0.0796,0.0797,0,0,0,0,0,0.0821,0.0822,0.0828,0.083,0.0838,0.0837,0.0837,0.0839,0.0842,0.0841,0.0838,0.0826,0.0811,0.0807,0.0802,0.0802,0.0778,0.0779,0.078,0.0793,0.0795,0.0797,0,0,0,0,0,0,0.0814,0.0823,0.083,0.0834,0.0837,0.0838,0.0837,0.0839,0.0837,0.0839,0.0828,0.0824,0.0822,0.081,0.0806,0.0802,0.0794,0.0794,0.0805,0.0807,0.0809,0.0816,0.0793,0,0,0,0,0,0.0815,0.0819,0.0826,0.083,0.0832,0.0836,0.0836,0.0839,0.0837,0.0837,0.0826,0.0821,0.0822,0.0813,0.081,0.0798,0.0806,0.0798,0.08,0.0801,0.0805,0.0815,0.0818,0.0784,0.0784,0.0784,0,0,0.0814,0.0819,0.0822,0.0829,0.0832,0.083,0.0836,0.0838,0.0838,0.0832,0.0824,0.0826,0.0823,0.082,0.0817,0.0808,0.0819,0.0803,0.0804,0.0807,0.0817,0.082,0.0823,0.0785,0.0785,0.0785,0,0,0.081,0.0819,0.0821,0.0823,0.0828,0.0827,0.0828,0.0829,0.0833,0.0828,0.0833,0.084,0.0821,0.0828,0.0829,0.0838,0.0834,0.0832,0.0839,0.0848,0.0851,0.0854,0.0885,0.089,0.0827,0.0827,0.0827,0,0.0804,0.0817,0.082,0.0821,0.0826,0.0825,0.083,0.0828,0.0825,0.0835,0.0826,0.0836,0.0829,0.0845,0.0849,0.0842,0.0852,0.0828,0.0851,0.0853,0.0856,0.0886,0.0892,0.0828,0.0828,0.0827,0.0827,0,0.0803,0.0813,0.0814,0.0817,0.0819,0.0822,0.0824,0.0823,0.0825,0.083,0.0847,0.0846,0.0856,0.0853,0.0851,0.0868,0.0872,0.0857,0.0844,0.086,0.0892,0.0897,0.0829,0.0828,0.0828,0.0828,0,0,0.0788,0.0809,0.081,0.0815,0.0823,0.0818,0.0826,0.0837,0.0847,0.0843,0.0865,0.0869,0.0878,0.0881,0.0883,0.0885,0.0914,0.0874,0.0874,0.0904,0.095,0.1077,0.1095,0.0896,0.0897,0.0897,0.0972,0,0.0787,0.0795,0.0809,0.0809,0.0815,0.0824,0.0831,0.084,0.0853,0.0865,0.0881,0.0897,0.0886,0.0898,0.0899,0.0912,0.0926,0.0896,0.0931,0.0933,0.1042,0.1105,0.1164,0.1246,0.0977,0.0978,0.0979,0,0.0787,0.0793,0.0805,0.0819,0.0822,0.0821,0.0841,0.0844,0.0871,0.0891,0.0915,0.0927,0.0949,0.0929,0.0961,0.0941,0.095,0.0954,0.0956,0.1073,0.107,0.1183,0.1266,0.1233,0.0987,0.0986,0.0986,0,0.0781,0.079,0.08,0.0802,0.0814,0.0825,0.0827,0.0856,0.0874,0.091,0.0939,0.0962,0.099,0.099,0.1024,0.0983,0.1067,0.101,0.1137,0.1146,0.1205,0.122,0.1261,0.1035,0.1035,0.1035,0.1034,0,0.0784,0.0786,0.0793,0.0797,0.0804,0.0813,0.0832,0.0851,0.089,0.0929,0.0948,0.1005,0.1004,0.1057,0.1052,0.1151,0.1098,0.1168,0.1183,0.1216,0.123,0.1211,0.1153,0.1037,0.1037,0.1036,0.1036,0,0.0782,0.0791,0.0794,0.0804,0.0806,0.0806,0.0833,0.0851,0.0891,0.0947,0.0965,0.1045,0.1147,0.1177,0.1216,0.1223,0.1256,0.1317,0.138,0.1404,0.1486,0.1426,0.1344,0.1319,0.1455,0.1458,0.1461,0,0.0783,0.0786,0.0793,0.0796,0.0803,0.0805,0.0822,0.0854,0.0888,0.0988,0.1027,0.1151,0.1273,0.1415,0.1481,0.1556,0.142,0.1619,0.1555,0.1538,0.1479,0.1286,0.1253,0.1632,0.1636,0.1639,0.1642,0,0.0779,0.0783,0.0785,0.08,0.0811,0.0818,0.0848,0.0879,0.0935,0.1009,0.1146,0.1253,0.1462,0.1617,0.1749,0.1775,0.156,0.1697,0.1642,0.1617,0.1439,0.1408,0.1537,0.1673,0.167,0.1668,0.1666,0.1665,0.0772,0.0775,0.0788,0.0798,0.0807,0.0838,0.0858,0.0916,0.0992,0.1119,0.1224,0.1405,0.165,0.1883,0.1898,0.1981,0.1815,0.1931,0.1859,0.1662,0.1642,0.1877,0.2056,0.2055,0.2055,0.2054,0.2053,0,0.0767,0.0779,0.0789,0.0804,0.0809,0.0824,0.0878,0.0917,0.102,0.118,0.1324,0.163,0.1838,0.198,0.2154,0.2124,0.1943,0.2064,0.1777,0.1738,0.1949,0.197,0.2184,0.2184,0.2184,0.2184,0.2184,0.2184,0.0768,0.078,0.0791,0.0802,0.081,0.0833,0.0866,0.0954,0.1067,0.1292,0.1477,0.1639,0.1898,0.2113,0.2167,0.2128,0.1893,0.1851,0.1743,0.1893,0.1872,0.1852,0.1859,0.2046,0.2046,0.1492,0.1489,0.1486]},{"header":{"parameterUnit":"m.s-1","parameterCategory":2,"la1":30.2991,"la2":30.254,"lo1":-89.0895,"lo2":-89.0444,"dy":0.0017,"dx":0.0017,"nx":28,"ny":28,"refTime":"2025-01-06T09:00:00:Z","depth":"0","parameterNumber":3,"parameterNumberName":"V-component_of_CURRENTS"},"data":[0,0,0,0,0,0,0,0,0,0,0,0,0,0,0,0,0,0,0,0,0,0,0,0,0,0,0,0,0,0,0,0,0,0,0,0,0,0,0,0,0,0,0,0,0,0,0,0,0,0,0,0,0,0,0,0,0,0,0.0184,0.0184,0,0.0184,0.0184,0.0184,0.0197,0.0197,0.0197,0.0197,0.0169,0.0168,0.0167,0,0,0,0,0,0,0,0,0,0,0,0,0,0.0197,0.0197,0.0184,0.0184,0.0184,0.0184,0.0184,0.0184,0.0196,0.0197,0.0197,0.0197,0.0169,0.0168,0.0166,0,0,0,0,0,0,0,0,0,0,0,0,0,0.0194,0.0197,0.0184,0.0189,0.019,0.0184,0.0184,0.0184,0.0196,0.0197,0.0197,0.0198,0.0169,0.0168,0.0166,0.0148,0,0,0.0162,0.0161,0,0,0,0,0,0,0,0,0.0195,0.0194,0.0189,0.0189,0.019,0.019,0.0178,0.017,0.0196,0.0194,0.0197,0.0198,0.0172,0.0171,0.0171,0.0147,0.0146,0.0161,0.0161,0.016,0.0159,0,0,0,0,0,0,0,0.0195,0.0194,0.0184,0.0189,0.0189,0.0193,0.0193,0.0177,0.0181,0.0195,0.0195,0.0195,0.0173,0.0172,0.017,0.0145,0.0162,0.016,0.0159,0.0159,0.0103,0.0103,0,0,0,0,0,0,0.0193,0.0194,0.0184,0.0184,0.0193,0.0193,0.0193,0.019,0.0182,0.0181,0.0194,0.0195,0.0175,0.0172,0.0169,0.014,0.016,0.0158,0.0158,0.0104,0.0103,0.0103,0,0,0,0,0,0,0.0193,0.0192,0.0184,0.0189,0.0188,0.0192,0.0189,0.019,0.0191,0.0182,0.0181,0.0195,0.0175,0.0171,0.0152,0.0139,0.0158,0.0156,0.0105,0.0104,0.0103,0.0085,0,0,0,0,0,0,0.0194,0.0192,0.019,0.0189,0.0188,0.0182,0.0188,0.0189,0.019,0.0191,0.0182,0.018,0.0175,0.0154,0.015,0.0137,0.0155,0.0105,0.0104,0.0103,0.0086,0.0084,0.0082,0,0,0,0,0,0.0194,0.0187,0.019,0.0189,0.0185,0.0181,0.0181,0.0186,0.0189,0.0189,0.0179,0.018,0.0145,0.0152,0.0148,0.0134,0.0106,0.0105,0.0103,0.0087,0.0084,0.0082,0,0,0,0,0,0,0.0195,0.0187,0.0191,0.0183,0.0184,0.0184,0.0181,0.0185,0.0178,0.0178,0.017,0.0167,0.0146,0.0142,0.015,0.0116,0.0126,0.0124,0.0116,0.0113,0.011,0.0116,0.0154,0,0,0,0,0,0.0193,0.0183,0.0183,0.0178,0.0177,0.018,0.0179,0.0183,0.0176,0.0175,0.0165,0.0153,0.0137,0.0127,0.0115,0.0093,0.0103,0.0082,0.0079,0.0077,0.0079,0.0083,0.0082,0.0099,0.0099,0.0099,0,0,0.0194,0.0186,0.0183,0.0177,0.0177,0.0172,0.018,0.0179,0.0166,0.017,0.0147,0.0144,0.013,0.0108,0.0098,0.0102,0.0079,0.0076,0.0074,0.0077,0.0082,0.008,0.0079,0.0098,0.0098,0.0098,0,0,0.0187,0.0183,0.0174,0.0172,0.0169,0.0167,0.0166,0.0164,0.0155,0.0137,0.0134,0.0124,0.0099,0.0087,0.0078,0.0053,0.0067,0.005,0.0038,0.0042,0.0041,0.004,0.0056,0.0056,0.0046,0.0046,0.0046,0,0.019,0.0178,0.0173,0.0165,0.0161,0.0164,0.0158,0.0144,0.0134,0.0123,0.0127,0.0099,0.0088,0.006,0.0054,0.0047,0.006,0.005,0.004,0.0039,0.0038,0.0054,0.0055,0.0045,0.0046,0.0046,0.0046,0,0.018,0.0171,0.0165,0.0152,0.0147,0.0143,0.0127,0.0114,0.0105,0.0098,0.0074,0.0063,0.0052,0.0042,0.0039,0.0024,0.0038,0.0038,0.0049,0.0036,0.0053,0.0055,0.0044,0.0044,0.0045,0.0045,0,0,0.0184,0.0163,0.0161,0.0156,0.0141,0.0138,0.0107,0.0088,0.0077,0.0059,0.0048,0.0015,0.0025,0.0015,0.0011,0.0009,0.0015,0.0023,0.0023,0.0042,0.0036,0.0071,0.0076,0.0017,0.0017,0.0017,0.0052,0,0.0181,0.0166,0.0151,0.0138,0.0133,0.0117,0.0086,0.0067,0.0059,0.0048,0.0028,0.0021,0.0007,0.0014,0.0005,0.0014,0.0017,0.0006,0.0043,0.0045,0.0079,0.0078,0.0086,0.0121,0.0054,0.0054,0.0054,0,0.0178,0.0167,0.0154,0.0129,0.0125,0.0114,0.0088,0.0061,0.0037,0.0032,0.0025,0.0027,0.0011,0.0015,0.001,0.0006,0.0021,0.0029,0.003,0.007,0.0081,0.0122,0.0126,0.0091,0.0056,0.0056,0.0056,0,0.019,0.0169,0.0158,0.0152,0.0122,0.0109,0.009,0.0063,0.0051,0.0038,0.0056,0.0027,0.0041,0.003,0.0045,0.0031,0.0062,0.0044,0.0088,0.0091,0.011,0.0115,0.0088,0.0055,0.0054,0.0054,0.0054,0,0.0191,0.0183,0.0166,0.0162,0.0145,0.0118,0.0103,0.0081,0.0071,0.0081,0.0056,0.0085,0.0051,0.0068,0.0058,0.0084,0.0071,0.0092,0.0102,0.0105,0.0108,0.0088,0.0046,0.0056,0.0055,0.0055,0.0055,0,0.0201,0.0189,0.0178,0.0155,0.0152,0.0138,0.0123,0.0115,0.0102,0.0126,0.0131,0.0138,0.0156,0.0133,0.0139,0.0124,0.0127,0.015,0.0162,0.0173,0.0164,0.0121,0.0104,0.0155,0.0187,0.0188,0.0189,0,0.0202,0.0197,0.0184,0.0185,0.0179,0.0163,0.0151,0.013,0.0143,0.0175,0.02,0.023,0.0281,0.0287,0.0241,0.0225,0.0194,0.0234,0.0201,0.0171,0.0129,0.0094,0.0136,0.0219,0.022,0.0221,0.0222,0,0.0203,0.0198,0.0193,0.0201,0.02,0.0193,0.0195,0.0218,0.021,0.0263,0.0349,0.0402,0.0398,0.0404,0.0364,0.0331,0.0212,0.0253,0.0211,0.0145,0.0114,0.0166,0.0194,0.0229,0.0229,0.0228,0.0228,0.0227,0.0203,0.0205,0.0205,0.0214,0.0217,0.0235,0.0254,0.0291,0.0346,0.0472,0.05,0.0658,0.0593,0.0538,0.0438,0.0289,0.029,0.0267,0.0217,0.0185,0.0227,0.0284,0.0337,0.0336,0.0336,0.0336,0.0336,0,0.0201,0.0208,0.0221,0.0234,0.025,0.0247,0.0289,0.0345,0.0453,0.0636,0.0766,0.0934,0.0804,0.0652,0.0401,0.0281,0.024,0.0224,0.0156,0.0207,0.0246,0.0242,0.029,0.029,0.029,0.029,0.029,0.029,0.0201,0.0213,0.0227,0.026,0.0276,0.0317,0.0352,0.0473,0.0626,0.0942,0.1172,0.1339,0.1287,0.0632,0.0278,0.0194,0.0147,0.0094,0.0124,0.0101,0.01,0.01,0.0087,0.0101,0.0101,0.0126,0.0126,0.0126]}],[{"header":{"parameterUnit":"m.s-1","parameterCategory":2,"la1":30.2991,"la2":30.254,"lo1":-89.0895,"lo2":-89.0444,"dy":0.0017,"dx":0.0017,"nx":28,"ny":28,"refTime":"2025-01-06T09:00:00:Z","depth":"2","parameterNumber":2,"parameterNumberName":"U-component_of_CURRENTS"},"data":[0,0,0,0,0,0,0,0,0,0,0,0,0,0,0,0,0,0,0,0,0,0,0,0,0,0,0,0,0,0,0,0,0,0,0,0,0,0,0,0,0,0,0,0,0,0,0,0,0,0,0,0,0,0,0,0,0,0,0.0777,0.0777,0,0.0776,0.0776,0.0776,0.0783,0.0783,0.0783,0.0783,0.075,0.0749,0.0748,0,0,0,0,0,0,0,0,0,0,0,0,0,0.076,0.076,0.0777,0.0777,0.0777,0.0776,0.0776,0.0776,0.0783,0.0783,0.0783,0.0783,0.0751,0.0749,0.0748,0,0,0,0,0,0,0,0,0,0,0,0,0,0.0764,0.076,0.0777,0.078,0.078,0.0776,0.0776,0.0776,0.0783,0.0783,0.0783,0.0784,0.0751,0.075,0.0748,0.0733,0,0,0.0743,0.0743,0,0,0,0,0,0,0,0,0.0764,0.0765,0.078,0.078,0.078,0.078,0.0758,0.076,0.0783,0.0782,0.0783,0.0784,0.0757,0.0755,0.0755,0.0732,0.073,0.0743,0.0742,0.0742,0.0741,0,0,0,0,0,0,0,0.0764,0.0765,0.0777,0.078,0.078,0.0773,0.0774,0.0759,0.0767,0.0782,0.0782,0.0782,0.0757,0.0756,0.0754,0.073,0.0743,0.0742,0.0741,0.074,0.0723,0.0724,0,0,0,0,0,0,0.0765,0.0765,0.0777,0.0777,0.0772,0.0773,0.0775,0.078,0.0768,0.0767,0.0782,0.0782,0.0759,0.0756,0.0753,0.0752,0.0742,0.074,0.0739,0.0723,0.0723,0.0724,0,0,0,0,0,0,0.0764,0.0766,0.0777,0.077,0.0771,0.0774,0.0779,0.078,0.0783,0.0769,0.0767,0.0785,0.0759,0.0755,0.0748,0.075,0.0739,0.0738,0.0722,0.0723,0.0724,0.0739,0,0,0,0,0,0,0.0764,0.0766,0.077,0.0771,0.0772,0.0775,0.0779,0.0779,0.0782,0.0782,0.077,0.0767,0.0759,0.075,0.0746,0.0748,0.0737,0.0722,0.0723,0.0723,0.0737,0.074,0.0742,0,0,0,0,0,0.0763,0.0764,0.0771,0.0772,0.0778,0.0775,0.0775,0.0777,0.0782,0.0781,0.0779,0.0768,0.0753,0.0749,0.0744,0.0745,0.0721,0.0722,0.0723,0.0737,0.0739,0.0742,0,0,0,0,0,0,0.0759,0.0765,0.0772,0.0776,0.0777,0.0776,0.0776,0.0778,0.0777,0.078,0.0769,0.0766,0.0765,0.0753,0.0749,0.0745,0.0737,0.0737,0.0749,0.0751,0.0753,0.0761,0.0735,0,0,0,0,0,0.0761,0.0764,0.0769,0.0772,0.0774,0.0777,0.0776,0.078,0.0778,0.0779,0.0768,0.0763,0.0765,0.0756,0.0753,0.0742,0.0749,0.0742,0.0744,0.0746,0.075,0.0759,0.0762,0.0727,0.0727,0.0727,0,0,0.0761,0.0764,0.0766,0.0771,0.0774,0.0771,0.0777,0.0779,0.0779,0.0773,0.0766,0.0769,0.0766,0.0763,0.0761,0.0752,0.0763,0.0747,0.0749,0.0752,0.0761,0.0764,0.0767,0.0728,0.0728,0.0728,0,0,0.0757,0.0766,0.0767,0.0768,0.0772,0.077,0.0772,0.0771,0.0776,0.0771,0.0777,0.0785,0.0766,0.0773,0.0774,0.0783,0.0779,0.0778,0.0785,0.0794,0.0797,0.08,0.083,0.0835,0.0773,0.0773,0.0773,0,0.0753,0.0764,0.0766,0.0766,0.077,0.0769,0.0773,0.077,0.0766,0.0777,0.077,0.0781,0.0774,0.079,0.0795,0.0788,0.0797,0.0775,0.0797,0.0799,0.0802,0.0832,0.0837,0.0774,0.0773,0.0773,0.0773,0,0.0751,0.0762,0.0762,0.0763,0.0763,0.0766,0.0765,0.0765,0.0767,0.0773,0.0792,0.0791,0.0803,0.08,0.0797,0.0815,0.0819,0.0804,0.079,0.0806,0.0837,0.0842,0.0775,0.0774,0.0774,0.0774,0,0,0.0738,0.0758,0.0758,0.0762,0.0768,0.076,0.0767,0.0777,0.0788,0.0786,0.0809,0.0814,0.0827,0.083,0.0832,0.0833,0.0861,0.0822,0.0822,0.0851,0.0896,0.102,0.1038,0.0843,0.0844,0.0844,0.0917,0,0.074,0.0745,0.0756,0.0754,0.0758,0.0766,0.0771,0.0779,0.0793,0.0807,0.0825,0.0844,0.0834,0.0847,0.0849,0.086,0.0873,0.0844,0.0876,0.0878,0.0986,0.1048,0.0899,0.0962,0.0922,0.0923,0.0923,0,0.074,0.0743,0.0753,0.0763,0.0765,0.0762,0.078,0.0781,0.0812,0.0834,0.0862,0.0876,0.09,0.0879,0.0911,0.0891,0.0899,0.0901,0.0903,0.1017,0.1013,0.0936,0.0973,0.0932,0.0932,0.0931,0.093,0,0.0734,0.074,0.0748,0.0749,0.0757,0.0767,0.0767,0.0795,0.0814,0.0854,0.0886,0.0912,0.0942,0.094,0.0974,0.0932,0.1014,0.0956,0.1079,0.1088,0.097,0.0969,0.0979,0.0979,0.0979,0.0979,0.0979,0,0.0739,0.0739,0.0742,0.0745,0.075,0.0755,0.0773,0.0793,0.0834,0.0875,0.0896,0.0955,0.0955,0.1008,0.1001,0.1097,0.1046,0.111,0.1125,0.0977,0.0976,0.0947,0.0942,0.0982,0.0981,0.098,0.098,0,0.0737,0.0746,0.0746,0.0752,0.0754,0.0751,0.0775,0.0793,0.0835,0.0894,0.0913,0.0995,0.1097,0.1127,0.1164,0.1169,0.1216,0.1258,0.1115,0.1114,0.1265,0.126,0.1381,0.1386,0.1391,0.1394,0.1397,0,0.0738,0.074,0.0744,0.0747,0.0753,0.0752,0.0767,0.0799,0.0832,0.0934,0.0974,0.11,0.1221,0.1359,0.1395,0.1459,0.1394,0.134,0.1247,0.131,0.131,0.1298,0.1287,0.1078,0.1078,0.1078,0.1078,0,0.0732,0.0737,0.0736,0.0751,0.0761,0.0767,0.0794,0.0823,0.0879,0.0955,0.1094,0.12,0.138,0.1422,0.1536,0.1526,0.1319,0.1356,0.1433,0.1041,0.1042,0.1037,0.1032,0.108,0.108,0.108,0.108,0.108,0.0725,0.0727,0.0739,0.0749,0.0757,0.0787,0.0807,0.0858,0.0932,0.1041,0.1151,0.1266,0.1306,0.1462,0.1459,0.1436,0.1517,0.1354,0.1344,0.1335,0.1329,0.1343,0.1436,0.1437,0.1439,0.144,0.1442,0,0.0717,0.0732,0.074,0.0755,0.0755,0.0774,0.0827,0.0846,0.0942,0.1059,0.1187,0.114,0.1228,0.1265,0.1261,0.1309,0.1193,0.1219,0.0995,0.0998,0.0999,0.0966,0.098,0.0979,0.0978,0.0976,0,0,0.0719,0.073,0.074,0.0746,0.0754,0.0774,0.0808,0.0862,0.0931,0.0991,0.1039,0.1193,0.1243,0.1085,0.1084,0.1029,0.0995,0.0993,0.1364,0.1103,0.1102,0.1088,0.1045,0,0,0,0,0]},{"header":{"parameterUnit":"m.s-1","parameterCategory":2,"la1":30.2991,"la2":30.254,"lo1":-89.0895,"lo2":-89.0444,"dy":0.0017,"dx":0.0017,"nx":28,"ny":28,"refTime":"2025-01-06T09:00:00:Z","depth":"2","parameterNumber":3,"parameterNumberName":"V-component_of_CURRENTS"},"data":[0,0,0,0,0,0,0,0,0,0,0,0,0,0,0,0,0,0,0,0,0,0,0,0,0,0,0,0,0,0,0,0,0,0,0,0,0,0,0,0,0,0,0,0,0,0,0,0,0,0,0,0,0,0,0,0,0,0,0.008,0.008,0,0.0078,0.0078,0.0078,0.0091,0.0091,0.0092,0.0092,0.0067,0.0066,0.0065,0,0,0,0,0,0,0,0,0,0,0,0,0,0.0096,0.0095,0.008,0.008,0.008,0.0078,0.0078,0.0078,0.0091,0.0091,0.0092,0.0092,0.0067,0.0066,0.0065,0,0,0,0,0,0,0,0,0,0,0,0,0,0.0091,0.0095,0.008,0.0086,0.0087,0.0078,0.0078,0.0078,0.0091,0.0091,0.0092,0.0092,0.0068,0.0066,0.0065,0.0045,0,0,0.006,0.006,0,0,0,0,0,0,0,0,0.0091,0.009,0.0086,0.0086,0.0087,0.0085,0.0074,0.0066,0.0091,0.0089,0.0092,0.0093,0.0071,0.0069,0.0068,0.0044,0.0043,0.006,0.0059,0.0059,0.0058,0,0,0,0,0,0,0,0.0091,0.009,0.008,0.0085,0.0086,0.0089,0.0089,0.0073,0.0077,0.009,0.009,0.009,0.0071,0.0069,0.0067,0.0042,0.006,0.0059,0.0058,0.0057,0.0006,0.0005,0,0,0,0,0,0,0.0091,0.0091,0.008,0.008,0.009,0.0088,0.0088,0.0085,0.0077,0.0077,0.0089,0.009,0.0071,0.0069,0.0066,0.004,0.0059,0.0057,0.0056,0.0006,0.0006,0.0005,0,0,0,0,0,0,0.0091,0.009,0.008,0.0085,0.0084,0.0087,0.0084,0.0085,0.0087,0.0077,0.0077,0.0092,0.0072,0.0068,0.0051,0.0039,0.0057,0.0055,0.0007,0.0006,0.0005,-0.0012,0,0,0,0,0,0,0.0091,0.009,0.0089,0.0085,0.0084,0.0077,0.0083,0.0084,0.0086,0.0087,0.0079,0.0077,0.0072,0.0053,0.0049,0.0037,0.0054,0.0007,0.0006,0.0006,-0.0011,-0.0013,-0.0015,0,0,0,0,0,0.0092,0.0085,0.0089,0.0088,0.0082,0.0077,0.0076,0.0081,0.0086,0.0085,0.0077,0.0077,0.0045,0.0051,0.0047,0.0034,0.0008,0.0007,0.0006,-0.001,-0.0013,-0.0015,0,0,0,0,0,0,0.0095,0.0086,0.009,0.0082,0.0082,0.0079,0.0077,0.0081,0.0074,0.0076,0.0068,0.0065,0.0046,0.0042,0.0049,0.0018,0.0027,0.0026,0.0017,0.0014,0.0012,0.0019,0.0053,0,0,0,0,0,0.0094,0.0084,0.0083,0.0077,0.0076,0.0078,0.0077,0.0081,0.0074,0.0073,0.0064,0.0053,0.0037,0.0028,0.0017,-0.0005,0.0007,-0.0014,-0.0016,-0.0018,-0.0016,-0.0011,-0.0012,0.0001,0.0002,0.0002,0,0,0.0096,0.0087,0.0084,0.0077,0.0076,0.007,0.0079,0.0077,0.0064,0.0069,0.0047,0.0044,0.0031,0.0009,0.0,0.0004,-0.0015,-0.002,-0.0021,-0.0018,-0.0012,-0.0013,-0.0015,0.0001,0.0001,0.0001,0,0,0.0089,0.0085,0.0076,0.0073,0.007,0.0067,0.0068,0.0064,0.0055,0.0038,0.0036,0.0027,0.0003,-0.0009,-0.0018,-0.0041,-0.0026,-0.0044,-0.0054,-0.0049,-0.005,-0.0051,-0.0032,-0.0031,-0.0047,-0.0047,-0.0047,0,0.0094,0.0082,0.0075,0.0065,0.0061,0.0065,0.0059,0.0044,0.0034,0.0024,0.0029,0.0003,-0.0007,-0.0035,-0.004,-0.0047,-0.0033,-0.0043,-0.0051,-0.0052,-0.0052,-0.0033,-0.0031,-0.0048,-0.0048,-0.0047,-0.0047,0,0.0082,0.0074,0.0068,0.0054,0.0047,0.0044,0.0027,0.0015,0.0009,0.0001,-0.0021,-0.0032,-0.0041,-0.0051,-0.0054,-0.0066,-0.0051,-0.0052,-0.0043,-0.0054,-0.0034,-0.0032,-0.0049,-0.0049,-0.0048,-0.0048,0,0,0.0088,0.0065,0.0064,0.0058,0.0043,0.0037,0.0007,-0.0011,-0.0021,-0.0038,-0.0048,-0.0078,-0.0066,-0.0076,-0.008,-0.008,-0.0071,-0.0066,-0.0065,-0.0044,-0.0045,-0.002,-0.0015,-0.007,-0.007,-0.007,-0.0027,0,0.0086,0.0069,0.0053,0.0039,0.0032,0.0018,-0.0014,-0.0033,-0.0039,-0.0049,-0.0067,-0.0073,-0.0085,-0.0076,-0.0084,-0.0073,-0.0067,-0.0081,-0.004,-0.0039,-0.0012,-0.0013,-0.0066,-0.0032,-0.0025,-0.0025,-0.0025,0,0.0082,0.007,0.0055,0.0029,0.0024,0.0014,-0.0011,-0.0039,-0.006,-0.0064,-0.0069,-0.0065,-0.0078,-0.0074,-0.0074,-0.0079,-0.0061,-0.0052,-0.005,-0.0019,-0.001,-0.0021,-0.0028,-0.0021,-0.0022,-0.0022,-0.0022,0,0.0094,0.0071,0.0059,0.0053,0.0021,0.0009,-0.0009,-0.0035,-0.0047,-0.0057,-0.0038,-0.0063,-0.0048,-0.0054,-0.0037,-0.005,-0.0016,-0.0033,0.0006,0.0009,-0.0024,-0.0025,-0.0018,-0.0019,-0.0019,-0.0019,-0.0019,0,0.0095,0.0087,0.0068,0.0064,0.0046,0.0018,0.0003,-0.0016,-0.0024,-0.0014,-0.0036,-0.0008,-0.0036,-0.0018,-0.0024,0.0002,-0.0007,0.0011,0.002,-0.0031,-0.0032,-0.0017,-0.0017,-0.0017,-0.0017,-0.0018,-0.0018,0,0.0104,0.0092,0.008,0.0057,0.0053,0.0039,0.0023,0.0016,0.0006,0.0031,0.0036,0.0045,0.0065,0.0045,0.0056,0.0041,0.0049,0.0067,0.0019,0.0021,0.0067,0.0065,0.0101,0.0102,0.0103,0.0104,0.0105,0,0.0104,0.0099,0.0086,0.0087,0.0081,0.0064,0.0051,0.0031,0.0043,0.0077,0.0102,0.0134,0.0181,0.0188,0.0132,0.0116,0.0114,0.008,0.0038,0.0073,0.0078,0.0075,0.0072,-0.0012,-0.0012,-0.0013,-0.0013,0,0.0103,0.0099,0.0093,0.0102,0.0101,0.0092,0.0093,0.0112,0.0106,0.0159,0.0246,0.0295,0.0278,0.024,0.0194,0.0165,0.0065,0.0077,0.0121,-0.0028,-0.0028,-0.0024,-0.0025,-0.0015,-0.0015,-0.0015,-0.0014,-0.0014,0.0103,0.0104,0.0106,0.0115,0.0117,0.0132,0.0151,0.018,0.0232,0.0333,0.0363,0.0452,0.0327,0.0283,0.0188,0.0083,0.0104,0.0057,0.0055,0.0054,0.004,0.0042,0.0066,0.0067,0.0067,0.0068,0.0068,0,0.0098,0.0109,0.0121,0.0134,0.0145,0.0146,0.0186,0.0214,0.0312,0.0442,0.0547,0.0465,0.04,0.0285,0.0116,0.0028,-0.0016,0.0003,-0.0057,-0.0055,-0.0052,-0.0075,-0.0078,-0.0078,-0.0078,-0.0078,0,0,0.0099,0.011,0.0124,0.0154,0.0171,0.0206,0.0241,0.0311,0.0408,0.0544,0.0635,0.067,0.0486,0.0329,0.0148,0.0053,0.0039,0.0035,0.0156,0.0108,0.0112,-0.0025,-0.0056,0,0,0,0,0]}],[{"header":{"parameterUnit":"m.s-1","parameterCategory":2,"la1":30.2991,"la2":30.254,"lo1":-89.0895,"lo2":-89.0444,"dy":0.0017,"dx":0.0017,"nx":28,"ny":28,"refTime":"2025-01-06T09:00:00:Z","depth":"4","parameterNumber":2,"parameterNumberName":"U-component_of_CURRENTS"},"data":[0,0,0,0,0,0,0,0,0,0,0,0,0,0,0,0,0,0,0,0,0,0,0,0,0,0,0,0,0,0,0,0,0,0,0,0,0,0,0,0,0,0,0,0,0,0,0,0,0,0,0,0,0,0,0,0,0,0,-0.0193,-0.0193,0,-0.0207,-0.0207,-0.0208,-0.0245,-0.0245,-0.0246,-0.0246,-0.0258,-0.0258,-0.0258,0,0,0,0,0,0,0,0,0,0,0,0,0,-0.0162,-0.0163,-0.0193,-0.0193,-0.0193,-0.0207,-0.0207,-0.0208,-0.0245,-0.0245,-0.0246,-0.0247,-0.0258,-0.0258,-0.0258,0,0,0,0,0,0,0,0,0,0,0,0,0,-0.0178,-0.0163,-0.0193,-0.0211,-0.0213,-0.0207,-0.0207,-0.0208,-0.0244,-0.0245,-0.0246,-0.0247,-0.0258,-0.0258,-0.0258,-0.0238,0,0,-0.0256,-0.0256,0,0,0,0,0,0,0,0,-0.0177,-0.0179,-0.0209,-0.021,-0.0212,-0.0223,-0.0201,-0.0217,-0.0244,-0.0235,-0.0246,-0.0247,-0.0244,-0.0245,-0.0249,-0.0239,-0.0239,-0.0256,-0.0256,-0.0256,-0.0256,0,0,0,0,0,0,0,-0.0176,-0.0179,-0.0201,-0.0208,-0.021,-0.0206,-0.021,-0.0204,-0.0236,-0.0236,-0.0238,-0.0236,-0.0245,-0.0249,-0.0249,-0.0239,-0.0256,-0.0256,-0.0256,-0.0256,-0.0273,-0.0274,0,0,0,0,0,0,-0.0171,-0.0178,-0.02,-0.0201,-0.0194,-0.0206,-0.021,-0.022,-0.0236,-0.0239,-0.0235,-0.0237,-0.0249,-0.025,-0.025,-0.0283,-0.0256,-0.0256,-0.0256,-0.0272,-0.0273,-0.0274,0,0,0,0,0,0,-0.017,-0.0173,-0.02,-0.0187,-0.019,-0.0206,-0.0216,-0.022,-0.0246,-0.0235,-0.0238,-0.026,-0.025,-0.025,-0.0261,-0.0281,-0.0256,-0.0255,-0.0271,-0.0273,-0.0273,-0.0313,0,0,0,0,0,0,-0.0169,-0.0173,-0.0188,-0.0187,-0.019,-0.0208,-0.0215,-0.022,-0.0241,-0.0245,-0.0257,-0.0258,-0.0251,-0.0261,-0.026,-0.028,-0.0255,-0.0271,-0.0272,-0.0273,-0.0311,-0.0315,-0.0319,0,0,0,0,0,-0.0168,-0.0177,-0.0189,-0.0192,-0.0208,-0.0208,-0.0211,-0.0225,-0.0242,-0.0253,-0.0262,-0.0259,-0.0269,-0.0261,-0.026,-0.0281,-0.027,-0.0272,-0.0273,-0.0309,-0.0314,-0.0319,0,0,0,0,0,0,-0.0169,-0.0182,-0.0195,-0.0208,-0.0215,-0.0214,-0.0229,-0.0237,-0.0254,-0.0267,-0.0261,-0.0262,-0.0278,-0.0272,-0.0264,-0.0289,-0.0271,-0.0272,-0.0299,-0.0303,-0.0307,-0.03,-0.0255,0,0,0,0,0,-0.0176,-0.0195,-0.0197,-0.0213,-0.022,-0.0231,-0.0238,-0.0247,-0.0254,-0.0265,-0.0274,-0.0281,-0.0278,-0.0287,-0.0283,-0.0296,-0.0271,-0.031,-0.0314,-0.0317,-0.0311,-0.0285,-0.0286,-0.0279,-0.0279,-0.0279,0,0,-0.0178,-0.0191,-0.02,-0.0216,-0.0229,-0.0234,-0.0239,-0.0256,-0.0265,-0.0261,-0.0291,-0.0293,-0.0283,-0.0297,-0.0304,-0.03,-0.0309,-0.0319,-0.0322,-0.0313,-0.0287,-0.0287,-0.0287,-0.028,-0.028,-0.0279,0,0,-0.0184,-0.0209,-0.0224,-0.0233,-0.0252,-0.0253,-0.0263,-0.0277,-0.0295,-0.0309,-0.031,-0.0318,-0.033,-0.0323,-0.0318,-0.034,-0.0325,-0.0358,-0.0379,-0.0355,-0.0355,-0.0354,-0.0331,-0.0328,-0.0367,-0.0367,-0.0367,0,-0.0188,-0.021,-0.0226,-0.024,-0.0255,-0.0264,-0.0279,-0.0285,-0.0302,-0.0314,-0.0325,-0.0335,-0.0333,-0.0331,-0.0349,-0.0347,-0.0338,-0.0362,-0.0359,-0.0358,-0.0357,-0.0332,-0.0329,-0.0369,-0.0369,-0.0369,-0.0368,0,-0.02,-0.0221,-0.0233,-0.0258,-0.0274,-0.0289,-0.0297,-0.0318,-0.034,-0.0342,-0.036,-0.0354,-0.0363,-0.0369,-0.0369,-0.0372,-0.037,-0.0361,-0.0345,-0.036,-0.0333,-0.0329,-0.0372,-0.0371,-0.0371,-0.037,0,0,-0.0197,-0.0234,-0.0241,-0.0258,-0.0291,-0.0298,-0.0322,-0.0336,-0.0347,-0.0365,-0.0377,-0.0382,-0.0393,-0.0388,-0.0392,-0.0378,-0.037,-0.0384,-0.0382,-0.0357,-0.0328,-0.0323,-0.0318,-0.0373,-0.0373,-0.0372,-0.0314,0,-0.0207,-0.0234,-0.0256,-0.0283,-0.0297,-0.0324,-0.0342,-0.0358,-0.0372,-0.0381,-0.0376,-0.0383,-0.0395,-0.041,-0.04,-0.0372,-0.036,-0.0386,-0.0319,-0.0316,-0.0308,-0.0313,-0.037,-0.0311,-0.031,-0.0309,-0.0308,0,-0.0212,-0.0232,-0.0267,-0.03,-0.0313,-0.0334,-0.0374,-0.0389,-0.0396,-0.0409,-0.0417,-0.0411,-0.0403,-0.0406,-0.0364,-0.039,-0.037,-0.034,-0.0337,-0.0313,-0.0304,-0.0291,-0.0299,-0.03,-0.0301,-0.0301,-0.0302,0,-0.02,-0.0237,-0.027,-0.0284,-0.0322,-0.0356,-0.0383,-0.0407,-0.0415,-0.043,-0.0425,-0.042,-0.0399,-0.0384,-0.0342,-0.0364,-0.0273,-0.0289,-0.0257,-0.0256,-0.0259,-0.0259,-0.0249,-0.0249,-0.0249,-0.0249,-0.025,0,-0.0201,-0.022,-0.0271,-0.0285,-0.0321,-0.0364,-0.0402,-0.0418,-0.0438,-0.0418,-0.0446,-0.0409,-0.0392,-0.0342,-0.0331,-0.0274,-0.0265,-0.0254,-0.0239,-0.0279,-0.0282,-0.0256,-0.0257,-0.0247,-0.0248,-0.0248,-0.0248,0,-0.0185,-0.0216,-0.024,-0.0295,-0.0315,-0.0349,-0.0406,-0.0413,-0.0444,-0.0417,-0.0419,-0.0385,-0.0323,-0.0294,-0.0229,-0.0236,-0.0194,-0.0173,-0.0207,-0.0196,-0.0202,-0.0206,-0.0151,-0.015,-0.015,-0.0149,-0.0149,0,-0.0183,-0.0197,-0.0242,-0.0258,-0.0292,-0.0346,-0.0369,-0.0413,-0.0405,-0.038,-0.034,-0.0289,-0.026,-0.0149,-0.0156,-0.0132,-0.0131,-0.013,-0.0187,-0.0199,-0.019,-0.0196,-0.0201,-0.0148,-0.0148,-0.0148,-0.0148,0,-0.017,-0.0187,-0.0206,-0.0242,-0.0274,-0.0282,-0.0313,-0.0302,-0.0318,-0.0342,-0.0237,-0.0211,-0.013,-0.01,-0.0075,-0.0066,-0.0152,-0.0124,-0.0126,-0.018,-0.0195,-0.0188,-0.0194,-0.0146,-0.0146,-0.0146,-0.0146,0,-0.0163,-0.0165,-0.0192,-0.0221,-0.0236,-0.0204,-0.0231,-0.0206,-0.0203,-0.0179,-0.0133,-0.0092,-0.0071,-0.0062,-0.0041,-0.0036,-0.0058,-0.0085,-0.009,-0.0092,-0.0111,-0.0123,-0.0032,0,0,0,0,0,-0.0157,-0.0151,-0.0168,-0.0174,-0.0178,-0.0178,-0.0175,-0.0196,-0.0206,-0.0111,-0.0123,-0.0049,-0.0022,-0.0017,-0.0003,-0.0063,-0.0081,-0.0056,-0.0118,-0.0135,-0.0137,-0.0171,0,0,0,0,0,0,-0.0152,-0.0159,-0.0156,-0.0125,-0.0115,-0.0099,-0.0085,-0.0087,-0.0041,-0.0052,-0.0018,-0.0059,-0.0019,-0.0,0.0005,-0.0004,-0.005,-0.006,-0.0061,-0.0134,-0.0136,-0.0137,-0.0173,0,0,0,0,0]},{"header":{"parameterUnit":"m.s-1","parameterCategory":2,"la1":30.2991,"la2":30.254,"lo1":-89.0895,"lo2":-89.0444,"dy":0.0017,"dx":0.0017,"nx":28,"ny":28,"refTime":"2025-01-06T09:00:00:Z","depth":"4","parameterNumber":3,"parameterNumberName":"V-component_of_CURRENTS"},"data":[0,0,0,0,0,0,0,0,0,0,0,0,0,0,0,0,0,0,0,0,0,0,0,0,0,0,0,0,0,0,0,0,0,0,0,0,0,0,0,0,0,0,0,0,0,0,0,0,0,0,0,0,0,0,0,0,0,0,-0.0089,-0.009,0,-0.0098,-0.0098,-0.0098,-0.0152,-0.0154,-0.0155,-0.0156,-0.0227,-0.0227,-0.0228,0,0,0,0,0,0,0,0,0,0,0,0,0,-0.009,-0.009,-0.0089,-0.009,-0.009,-0.0098,-0.0098,-0.0098,-0.0152,-0.0154,-0.0155,-0.0157,-0.0227,-0.0227,-0.0228,0,0,0,0,0,0,0,0,0,0,0,0,0,-0.0093,-0.009,-0.0089,-0.0118,-0.012,-0.0098,-0.0098,-0.0098,-0.0152,-0.0154,-0.0156,-0.0158,-0.0226,-0.0227,-0.0228,-0.0194,0,0,-0.0231,-0.0232,0,0,0,0,0,0,0,0,-0.0093,-0.0093,-0.0113,-0.0116,-0.0119,-0.0126,-0.0124,-0.0133,-0.0151,-0.014,-0.0156,-0.0159,-0.0197,-0.0201,-0.0197,-0.0198,-0.0201,-0.0231,-0.0232,-0.0232,-0.0233,0,0,0,0,0,0,0,-0.0093,-0.0093,-0.0093,-0.0113,-0.0116,-0.012,-0.0123,-0.0126,-0.0158,-0.0141,-0.0145,-0.0145,-0.02,-0.0196,-0.0199,-0.0202,-0.0231,-0.0232,-0.0233,-0.0233,-0.0183,-0.0181,0,0,0,0,0,0,-0.0091,-0.0093,-0.0093,-0.0093,-0.0111,-0.0118,-0.0121,-0.0122,-0.0157,-0.0164,-0.0144,-0.0148,-0.0193,-0.0198,-0.0202,-0.0179,-0.0232,-0.0233,-0.0234,-0.0184,-0.0182,-0.018,0,0,0,0,0,0,-0.0091,-0.0091,-0.0092,-0.0093,-0.0094,-0.0116,-0.0116,-0.0121,-0.0135,-0.0159,-0.0167,-0.0156,-0.0195,-0.0201,-0.0211,-0.0182,-0.0234,-0.0234,-0.0187,-0.0184,-0.0181,-0.0123,0,0,0,0,0,0,-0.0091,-0.0091,-0.0094,-0.0093,-0.0094,-0.0085,-0.0114,-0.012,-0.0131,-0.0138,-0.0171,-0.0179,-0.0197,-0.021,-0.0212,-0.0184,-0.0235,-0.0189,-0.0185,-0.0182,-0.0127,-0.0118,-0.0111,0,0,0,0,0,-0.0091,-0.008,-0.0094,-0.0094,-0.0096,-0.0085,-0.0085,-0.0108,-0.013,-0.013,-0.0152,-0.0179,-0.0188,-0.0209,-0.0213,-0.0184,-0.0191,-0.0186,-0.0182,-0.0131,-0.012,-0.0111,0,0,0,0,0,0,-0.0083,-0.0085,-0.01,-0.0092,-0.0093,-0.0094,-0.0096,-0.0108,-0.0123,-0.0139,-0.0164,-0.0172,-0.0166,-0.0179,-0.0201,-0.0155,-0.0189,-0.0185,-0.0148,-0.0139,-0.0131,-0.0129,-0.0236,0,0,0,0,0,-0.0081,-0.0078,-0.0079,-0.0077,-0.0077,-0.0088,-0.0089,-0.0104,-0.0113,-0.0123,-0.0144,-0.0154,-0.0143,-0.0149,-0.015,-0.0131,-0.0137,-0.0109,-0.0101,-0.0094,-0.0092,-0.0036,-0.0023,-0.0166,-0.0166,-0.0166,0,0,-0.0079,-0.0079,-0.008,-0.0076,-0.0082,-0.0074,-0.0094,-0.0097,-0.0089,-0.0127,-0.013,-0.0134,-0.0133,-0.011,-0.0107,-0.0123,-0.0064,-0.0089,-0.0083,-0.0085,-0.003,-0.0017,-0.0004,-0.0163,-0.0163,-0.0164,0,0,-0.007,-0.0074,-0.007,-0.0073,-0.0079,-0.0071,-0.0074,-0.008,-0.0082,-0.0078,-0.0091,-0.0075,-0.0083,-0.0059,-0.0049,0.0008,-0.0024,0.0006,0.0048,0.0102,0.0114,0.0125,0.0097,0.0105,0.0012,0.0012,0.0012,0,-0.0074,-0.0069,-0.0067,-0.0067,-0.0072,-0.007,-0.0071,-0.0053,-0.0063,-0.0057,-0.0079,-0.0046,-0.0048,0.0009,0.0031,0.0027,0.0021,0.0006,0.0113,0.0123,0.0133,0.0103,0.0111,0.0015,0.0015,0.0015,0.0014,0,-0.0064,-0.0067,-0.0063,-0.0062,-0.0059,-0.0058,-0.0041,-0.0032,-0.0034,-0.0022,0.0013,0.0029,0.0048,0.0067,0.0063,0.0143,0.0099,0.0114,0.0084,0.0151,0.0114,0.0121,0.002,0.0019,0.0018,0.0017,0,0,-0.007,-0.0058,-0.0064,-0.0071,-0.0064,-0.006,-0.003,-0.0,0.0013,0.0036,0.0061,0.012,0.0126,0.0141,0.0156,0.0209,0.0267,0.0191,0.0192,0.0155,0.0327,0.025,0.0249,0.0302,0.0305,0.0307,0.0258,0,-0.0072,-0.007,-0.006,-0.0061,-0.0063,-0.0052,-0.0028,-0.0003,0.0023,0.0053,0.0111,0.0141,0.016,0.017,0.0236,0.0251,0.0294,0.0274,0.0274,0.0273,0.0193,0.026,0.0315,0.0264,0.0265,0.0266,0.0267,0,-0.0078,-0.0075,-0.0081,-0.0075,-0.0076,-0.0073,-0.005,-0.0022,0.0039,0.0057,0.0119,0.015,0.023,0.0242,0.0325,0.0306,0.0327,0.0343,0.0342,0.0258,0.0212,0.0194,0.0279,0.0278,0.0277,0.0277,0.0276,0,-0.0097,-0.0093,-0.0098,-0.0103,-0.0088,-0.0093,-0.0076,-0.0035,-0.0007,0.0066,0.0084,0.0177,0.0205,0.0283,0.0315,0.0326,0.0379,0.0398,0.0345,0.0336,0.0389,0.0378,0.0479,0.048,0.048,0.048,0.048,0,-0.0108,-0.0113,-0.0116,-0.0124,-0.0136,-0.0122,-0.0116,-0.0082,-0.003,0.0012,0.0087,0.0132,0.0225,0.0264,0.0311,0.0325,0.0379,0.0355,0.0341,0.0407,0.04,0.039,0.038,0.0478,0.0478,0.0479,0.0479,0,-0.0127,-0.0127,-0.0134,-0.0137,-0.0149,-0.0159,-0.0148,-0.0129,-0.008,-0.0021,0.0006,0.0091,0.0148,0.0203,0.0285,0.0289,0.0329,0.0324,0.0326,0.0311,0.0241,0.0235,0.0265,0.0262,0.026,0.0258,0.0257,0,-0.0131,-0.014,-0.0157,-0.0174,-0.0183,-0.0197,-0.0204,-0.0162,-0.0133,-0.0038,-0.001,0.0052,0.0113,0.0149,0.0207,0.025,0.0272,0.0243,0.0318,0.0247,0.023,0.0228,0.0225,0.0253,0.0252,0.0252,0.0251,0,-0.0135,-0.0145,-0.0148,-0.019,-0.0216,-0.0223,-0.0224,-0.0203,-0.0133,-0.01,-0.0006,0.0047,0.0084,0.014,0.0143,0.0195,0.0241,0.0221,0.0227,0.0298,0.0233,0.0218,0.0218,0.0244,0.0245,0.0246,0.0246,0,-0.0135,-0.0141,-0.0156,-0.0188,-0.0221,-0.0223,-0.0225,-0.019,-0.0156,-0.0049,-0.0031,0.0057,0.0094,0.0108,0.0132,0.0145,0.0173,0.0172,0.0182,0.019,0.0191,0.0099,0.0066,0,0,0,0,0,-0.0131,-0.0128,-0.0154,-0.0175,-0.0205,-0.022,-0.0221,-0.0211,-0.0161,-0.0096,-0.0051,0.0006,0.0062,0.0084,0.0091,0.0088,0.0156,0.0089,0.0156,0.0201,0.021,0.022,0,0,0,0,0,0,-0.0124,-0.0134,-0.014,-0.0157,-0.017,-0.0191,-0.0188,-0.0157,-0.0124,-0.0071,-0.0037,-0.0017,0.0035,0.0079,0.0094,0.0095,0.0127,0.0116,0.0114,0.0196,0.0204,0.0212,0.0224,0,0,0,0,0]}]]